Simultaneous Nadir Overpasses (SNOs) Predictions

Prediction of SNOs between LANDSAT-8 and NOAA-19 Satellite Orbit:

Table of predicted SNOs for the next 14.0 days since TLE Epoch: 2/5/2022
Index Date (LANDSAT-8) Time (LANDSAT-8) Lat,Lon (LANDSAT-8) SZA (LANDSAT-8 ) Date (NOAA-19) Time (NOAA-19) Lat,Lon (NOAA-19) SZA (NOAA-19 ) Distance(km) Time Diff (sec)
1 02/07/2022 05:03:29 -80.70, -41.70 82.78 02/07/2022 05:03:20 -80.69, -41.81 82.80 2.29 9
2 02/09/2022 10:37:12 80.70, 54.89 96.52 02/09/2022 10:36:28 80.69, 54.85 96.49 1.19 44
3 02/09/2022 11:26:39 -80.70,-137.51 83.50 02/09/2022 11:27:22 -80.69,-137.65 83.51 3.02 43
4 02/11/2022 17:00:22 80.69, -40.99 95.77 02/11/2022 17:00:30 80.69, -41.00 95.77 0.35 8
5 02/13/2022 22:34:05 -80.71, 55.73 84.96 02/13/2022 22:33:27 -80.69, 55.71 84.98 1.47 38
6 02/13/2022 23:23:32 80.68,-136.94 94.99 02/13/2022 23:24:32 80.69,-136.89 95.02 1.41 60
7 02/16/2022 04:07:47 80.72, 152.42 94.30 02/16/2022 04:06:35 80.70, 152.29 94.26 3.00 72
8 02/16/2022 04:57:15 -80.69, -40.26 85.76 02/16/2022 04:57:29 -80.69, -40.18 85.75 1.40 14
9 02/18/2022 10:30:57 80.69, 56.35 93.47 02/18/2022 10:30:37 80.70, 56.32 93.47 1.28 20



Historial Predications of SNOs between LANDSAT-8 and NOAA-19
